Location: ?
(35.4996°N, 139.3166°E)
Time: 04:11:45
(UTC+00:00)

METEOR-M - Pass Details

Date: 18 April 2024
Orbit: 814 x 818 km, 98.6° (Epoch: 23 May)

Event Time Altitude Azimuth Distance (km) Brightness Sun altitude
Rises 17:42:11 0° 17° (NNE) 3,345 8.1 -26.8°
Reaches altitude 10° 17:44:35 10° 21° (NNE) 2,410 7.3 -26.5°
Maximum altitude 17:49:51 61° 101° (E) 918 4.5 -25.6°
Enters shadow 17:51:33 41° 162° (SSE) 1,168 4.7 -25.3°
